Time,TemperatureF,DewpointF,PressureIn,WindDirection,WindDirectionDegrees,WindSpeedMPH,WindSpeedGustMPH,Humidity,HourlyPrecipIn,Conditions,Clouds,dailyrainin,SoftwareType,DateUTC
2013-03-30 00:00:00,59.5,48.2,29.91,WNW,292,0.0,0.0,66,0.00,,---,0.00,VWS V13.01,2013-03-30 04:00:00,
2013-03-30 00:01:00,59.5,48.2,29.91,WNW,292,0.0,0.0,66,0.00,,---,0.00,VWS V13.01,2013-03-30 04:01:00,
2013-03-30 00:04:00,59.3,48.0,29.91,WNW,292,0.0,0.0,66,0.00,,---,0.00,VWS V13.01,2013-03-30 04:04:00,
2013-03-30 00:09:00,59.1,48.2,29.91,WNW,292,0.0,0.0,67,0.00,,---,0.00,VWS V13.01,2013-03-30 04:09:00,
2013-03-30 00:14:00,59.0,48.1,29.91,WNW,292,0.0,0.0,67,0.00,,---,0.00,VWS V13.01,2013-03-30 04:14:00,
2013-03-30 00:18:00,58.8,47.9,29.91,WNW,292,0.0,0.0,67,0.00,,---,0.00,VWS V13.01,2013-03-30 04:18:00,
2013-03-30 00:23:00,58.8,47.9,29.91,WNW,292,0.0,0.0,67,0.00,,---,0.00,VWS V13.01,2013-03-30 04:23:00,
2013-03-30 00:28:00,58.8,47.9,29.91,WNW,292,0.0,0.0,67,0.00,,---,0.00,VWS V13.01,2013-03-30 04:28:00,
2013-03-30 00:33:00,58.8,48.3,29.91,WNW,292,0.0,0.0,68,0.00,,---,0.00,VWS V13.01,2013-03-30 04:33:00,
2013-03-30 00:38:00,58.8,48.3,29.90,NW,315,0.0,0.0,68,0.00,,---,0.00,VWS V13.01,2013-03-30 04:38:00,
2013-03-30 00:43:00,58.6,48.1,29.91,NW,315,0.0,0.0,68,0.00,,---,0.00,VWS V13.01,2013-03-30 04:43:00,
2013-03-30 00:48:00,58.2,47.7,29.91,NW,315,0.0,0.0,68,0.00,,---,0.00,VWS V13.01,2013-03-30 04:48:00,
2013-03-30 00:53:00,58.2,47.7,29.90,NW,315,0.0,0.0,68,0.00,,---,0.00,VWS V13.01,2013-03-30 04:53:00,
2013-03-30 00:58:00,58.1,47.6,29.90,NW,315,0.0,0.0,68,0.00,,---,0.00,VWS V13.01,2013-03-30 04:58:00,
2013-03-30 01:03:00,57.9,47.4,29.90,NW,315,0.0,0.0,68,0.00,,---,0.00,VWS V13.01,2013-03-30 05:03:00,
2013-03-30 01:08:00,57.9,47.8,29.90,NW,315,0.0,0.0,69,0.00,,---,0.00,VWS V13.01,2013-03-30 05:08:00,
2013-03-30 01:13:00,57.7,47.6,29.90,WNW,292,0.0,0.0,69,0.00,,---,0.00,VWS V13.01,2013-03-30 05:13:00,
2013-03-30 01:18:00,57.5,47.4,29.90,WNW,292,0.0,0.0,69,0.00,,---,0.00,VWS V13.01,2013-03-30 05:18:00,
2013-03-30 01:23:00,57.5,47.4,29.90,NW,315,0.0,0.0,69,0.00,,---,0.00,VWS V13.01,2013-03-30 05:23:00,
2013-03-30 01:29:00,57.5,47.8,29.90,NW,315,0.0,0.0,70,0.00,,---,0.00,VWS V13.01,2013-03-30 05:29:00,
2013-03-30 01:34:00,57.3,47.6,29.90,NW,315,0.0,0.0,70,0.00,,---,0.00,VWS V13.01,2013-03-30 05:34:00,
2013-03-30 01:39:00,57.3,47.6,29.89,NW,315,0.0,0.0,70,0.00,,---,0.00,VWS V13.01,2013-03-30 05:39:00,
2013-03-30 01:44:00,57.3,47.6,29.89,NW,315,0.0,0.0,70,0.00,,---,0.00,VWS V13.01,2013-03-30 05:44:00,
2013-03-30 01:49:00,57.0,47.3,29.89,West,270,0.0,0.0,70,0.00,,---,0.00,VWS V13.01,2013-03-30 05:49:00,
2013-03-30 01:54:00,57.0,47.3,29.89,NW,315,0.0,0.0,70,0.00,,---,0.00,VWS V13.01,2013-03-30 05:54:00,
2013-03-30 01:59:00,57.0,47.3,29.89,NW,315,0.0,0.0,70,0.00,,---,0.00,VWS V13.01,2013-03-30 05:59:00,
2013-03-30 02:04:00,57.0,47.7,29.89,NW,315,0.0,0.0,71,0.00,,---,0.00,VWS V13.01,2013-03-30 06:04:00,
2013-03-30 02:09:00,57.0,47.7,29.89,NW,315,0.0,0.0,71,0.00,,---,0.00,VWS V13.01,2013-03-30 06:09:00,
2013-03-30 02:14:00,56.8,47.5,29.89,NW,315,0.0,0.0,71,0.00,,---,0.00,VWS V13.01,2013-03-30 06:14:00,
2013-03-30 02:19:00,56.8,47.5,29.89,NW,315,0.0,0.0,71,0.00,,---,0.00,VWS V13.01,2013-03-30 06:19:00,
2013-03-30 02:24:00,56.8,47.5,29.89,NW,315,0.0,0.0,71,0.00,,---,0.00,VWS V13.01,2013-03-30 06:24:00,
2013-03-30 02:29:00,56.8,47.5,29.89,NW,315,0.0,0.0,71,0.00,,---,0.00,VWS V13.01,2013-03-30 06:29:00,
2013-03-30 02:34:00,56.6,47.3,29.89,NW,315,0.0,0.0,71,0.00,,---,0.00,VWS V13.01,2013-03-30 06:34:00,
2013-03-30 02:39:00,56.4,47.1,29.89,NW,315,0.0,0.0,71,0.00,,---,0.00,VWS V13.01,2013-03-30 06:39:00,
2013-03-30 02:44:00,56.4,47.1,29.89,NW,315,0.0,0.0,71,0.00,,---,0.00,VWS V13.01,2013-03-30 06:44:00,
2013-03-30 02:49:00,56.4,47.5,29.89,NW,315,0.0,0.0,72,0.00,,---,0.00,VWS V13.01,2013-03-30 06:49:00,
2013-03-30 02:54:00,56.4,47.5,29.89,NW,315,0.0,0.0,72,0.00,,---,0.00,VWS V13.01,2013-03-30 06:54:00,
2013-03-30 02:59:00,56.4,47.5,29.88,NW,315,0.0,0.0,72,0.00,,---,0.00,VWS V13.01,2013-03-30 06:59:00,
2013-03-30 03:04:00,56.3,47.4,29.88,NW,315,0.0,0.0,72,0.00,,---,0.00,VWS V13.01,2013-03-30 07:04:00,
2013-03-30 03:09:00,56.1,47.2,29.88,NW,315,0.0,0.0,72,0.00,,---,0.00,VWS V13.01,2013-03-30 07:09:00,
2013-03-30 03:14:00,56.1,47.2,29.88,NW,315,0.0,0.0,72,0.00,,---,0.00,VWS V13.01,2013-03-30 07:14:00,
2013-03-30 03:19:00,56.1,47.2,29.88,NW,315,0.0,0.0,72,0.00,,---,0.00,VWS V13.01,2013-03-30 07:19:00,
2013-03-30 03:24:00,55.9,47.4,29.88,NW,315,0.0,0.0,73,0.00,,---,0.00,VWS V13.01,2013-03-30 07:24:00,
2013-03-30 03:30:00,55.9,47.4,29.88,NW,315,0.0,0.0,73,0.00,,---,0.00,VWS V13.01,2013-03-30 07:30:00,
2013-03-30 03:35:00,55.9,47.4,29.88,NW,315,0.0,0.0,73,0.00,,---,0.00,VWS V13.01,2013-03-30 07:35:00,
2013-03-30 03:40:00,55.7,47.2,29.88,NW,315,0.0,0.0,73,0.00,,---,0.00,VWS V13.01,2013-03-30 07:40:00,
2013-03-30 03:45:00,55.5,47.0,29.88,NW,315,0.0,0.0,73,0.00,,---,0.00,VWS V13.01,2013-03-30 07:45:00,
2013-03-30 03:50:00,55.5,47.0,29.88,NW,315,0.0,0.0,73,0.00,,---,0.00,VWS V13.01,2013-03-30 07:50:00,
2013-03-30 03:55:00,55.5,47.0,29.88,NW,315,0.0,0.0,73,0.00,,---,0.00,VWS V13.01,2013-03-30 07:55:00,
2013-03-30 04:00:00,55.5,47.0,29.88,NW,315,0.0,0.0,73,0.00,,---,0.00,VWS V13.01,2013-03-30 08:00:00,
2013-03-30 04:05:00,55.4,46.9,29.88,NW,315,0.0,0.0,73,0.00,,---,0.00,VWS V13.01,2013-03-30 08:05:00,
2013-03-30 04:10:00,55.2,46.7,29.88,NW,315,0.0,0.0,73,0.00,,---,0.00,VWS V13.01,2013-03-30 08:10:00,
2013-03-30 04:15:00,55.2,47.1,29.88,NW,315,0.0,0.0,74,0.00,,---,0.00,VWS V13.01,2013-03-30 08:15:00,
2013-03-30 04:20:00,55.2,47.1,29.87,NW,315,0.0,0.0,74,0.00,,---,0.00,VWS V13.01,2013-03-30 08:20:00,
2013-03-30 04:25:00,55.2,47.1,29.87,WNW,292,0.0,0.0,74,0.00,,---,0.00,VWS V13.01,2013-03-30 08:25:00,
2013-03-30 04:30:00,55.2,47.1,29.87,WNW,292,0.0,0.0,74,0.00,,---,0.00,VWS V13.01,2013-03-30 08:30:00,
2013-03-30 04:35:00,55.0,47.2,29.87,WNW,292,0.0,0.0,75,0.00,,---,0.00,VWS V13.01,2013-03-30 08:35:00,
2013-03-30 04:40:00,55.0,47.2,29.87,WNW,292,0.0,0.0,75,0.00,,---,0.00,VWS V13.01,2013-03-30 08:40:00,
2013-03-30 04:45:00,55.0,47.2,29.87,NW,315,0.0,0.0,75,0.00,,---,0.00,VWS V13.01,2013-03-30 08:45:00,
2013-03-30 04:50:00,54.8,47.0,29.87,NW,315,0.0,0.0,75,0.00,,---,0.00,VWS V13.01,2013-03-30 08:50:00,
2013-03-30 04:55:00,54.8,47.0,29.87,NW,315,0.0,0.0,75,0.00,,---,0.00,VWS V13.01,2013-03-30 08:55:00,
2013-03-30 05:00:00,54.6,47.2,29.87,NW,315,0.0,0.0,76,0.00,,---,0.00,VWS V13.01,2013-03-30 09:00:00,
2013-03-30 05:06:00,54.6,47.2,29.87,NW,315,0.0,0.0,76,0.00,,---,0.00,VWS V13.01,2013-03-30 09:06:00,
2013-03-30 05:11:00,54.6,47.2,29.88,NW,315,0.0,0.0,76,0.00,,---,0.00,VWS V13.01,2013-03-30 09:11:00,
2013-03-30 05:16:00,54.6,47.2,29.88,NW,315,0.0,0.0,76,0.00,,---,0.00,VWS V13.01,2013-03-30 09:16:00,
2013-03-30 05:21:00,54.6,47.5,29.88,NW,315,0.0,0.0,77,0.00,,---,0.00,VWS V13.01,2013-03-30 09:21:00,
2013-03-30 05:26:00,54.6,47.5,29.88,NW,315,0.0,0.0,77,0.00,,---,0.00,VWS V13.01,2013-03-30 09:26:00,
2013-03-30 05:32:00,54.6,47.5,29.88,NW,315,0.0,0.0,77,0.00,,---,0.00,VWS V13.01,2013-03-30 09:32:00,
2013-03-30 05:34:00,54.6,47.5,29.88,NW,315,0.0,0.0,77,0.00,,---,0.00,VWS V13.01,2013-03-30 09:34:00,
2013-03-30 05:40:00,54.6,47.5,29.88,NW,315,0.0,0.0,77,0.00,,---,0.00,VWS V13.01,2013-03-30 09:40:00,
2013-03-30 05:45:00,54.6,47.5,29.88,NW,315,0.0,0.0,77,0.00,,---,0.00,VWS V13.01,2013-03-30 09:45:00,
2013-03-30 05:50:00,54.6,47.5,29.88,NW,315,0.0,0.0,77,0.00,,---,0.00,VWS V13.01,2013-03-30 09:50:00,
2013-03-30 05:55:00,54.8,48.1,29.88,NW,315,0.0,0.0,78,0.00,,---,0.00,VWS V13.01,2013-03-30 09:55:00,
2013-03-30 06:01:00,54.6,48.2,29.88,NW,315,0.0,0.0,79,0.00,,---,0.00,VWS V13.01,2013-03-30 10:01:00,
2013-03-30 06:06:00,54.5,48.1,29.88,NW,315,0.0,0.0,79,0.00,,---,0.00,VWS V13.01,2013-03-30 10:06:00,
2013-03-30 06:11:00,54.3,47.9,29.88,NW,315,0.0,0.0,79,0.00,,---,0.00,VWS V13.01,2013-03-30 10:11:00,
2013-03-30 06:17:00,54.3,47.9,29.87,NW,315,0.0,0.0,79,0.00,,---,0.00,VWS V13.01,2013-03-30 10:17:00,
2013-03-30 06:22:00,54.1,47.7,29.88,NW,315,0.0,0.0,79,0.00,,---,0.00,VWS V13.01,2013-03-30 10:22:00,
2013-03-30 06:27:00,53.9,47.5,29.88,NW,315,0.0,0.0,79,0.00,,---,0.00,VWS V13.01,2013-03-30 10:27:00,
2013-03-30 06:33:00,53.7,47.3,29.88,NW,315,0.0,0.0,79,0.00,,---,0.00,VWS V13.01,2013-03-30 10:33:00,
2013-03-30 06:38:00,53.7,47.3,29.88,NW,315,0.0,0.0,79,0.00,,---,0.00,VWS V13.01,2013-03-30 10:38:00,
2013-03-30 06:43:00,53.7,47.3,29.88,NW,315,0.0,0.0,79,0.00,,---,0.00,VWS V13.01,2013-03-30 10:43:00,
2013-03-30 06:48:00,53.7,47.3,29.88,NW,315,0.0,0.0,79,0.00,,---,0.00,VWS V13.01,2013-03-30 10:48:00,
2013-03-30 06:53:00,53.6,47.3,29.88,NW,315,0.0,0.0,79,0.00,,---,0.00,VWS V13.01,2013-03-30 10:53:00,
2013-03-30 06:58:00,53.4,47.1,29.88,NW,315,0.0,0.0,79,0.00,,---,0.00,VWS V13.01,2013-03-30 10:58:00,
2013-03-30 07:03:00,53.6,47.3,29.88,NW,315,0.0,0.0,79,0.00,,---,0.00,VWS V13.01,2013-03-30 11:03:00,
2013-03-30 07:08:00,53.6,47.3,29.88,NW,315,0.0,0.0,79,0.00,,---,0.00,VWS V13.01,2013-03-30 11:08:00,
2013-03-30 07:13:00,53.6,47.3,29.88,NW,315,0.0,0.0,79,0.00,,---,0.00,VWS V13.01,2013-03-30 11:13:00,
2013-03-30 07:18:00,53.6,47.3,29.88,NW,315,0.0,0.0,79,0.00,,---,0.00,VWS V13.01,2013-03-30 11:18:00,
2013-03-30 07:23:00,53.7,47.3,29.89,WNW,292,0.0,0.0,79,0.00,,---,0.00,VWS V13.01,2013-03-30 11:23:00,
2013-03-30 07:28:00,53.7,47.3,29.89,WNW,292,0.0,0.0,79,0.00,,---,0.00,VWS V13.01,2013-03-30 11:28:00,
2013-03-30 07:33:00,53.7,47.7,29.89,WNW,292,0.0,0.0,80,0.00,,---,0.00,VWS V13.01,2013-03-30 11:33:00,
2013-03-30 07:38:00,53.6,47.6,29.89,WNW,292,0.0,0.0,80,0.00,,---,0.00,VWS V13.01,2013-03-30 11:38:00,
2013-03-30 07:43:00,53.7,47.7,29.90,WNW,292,0.0,0.0,80,0.00,,---,0.00,VWS V13.01,2013-03-30 11:43:00,
2013-03-30 07:48:00,53.7,47.7,29.90,WNW,292,0.0,0.0,80,0.00,,---,0.00,VWS V13.01,2013-03-30 11:48:00,
2013-03-30 07:53:00,53.7,47.7,29.90,WNW,292,0.0,0.0,80,0.00,,---,0.00,VWS V13.01,2013-03-30 11:53:00,
2013-03-30 07:58:00,53.7,47.7,29.91,WNW,292,0.0,0.0,80,0.00,,---,0.00,VWS V13.01,2013-03-30 11:58:00,
2013-03-30 08:04:00,54.1,48.4,29.91,WNW,292,0.0,0.0,81,0.00,,---,0.00,VWS V13.01,2013-03-30 12:04:00,
2013-03-30 08:09:00,54.3,48.6,29.91,WNW,292,0.0,0.0,81,0.00,,---,0.00,VWS V13.01,2013-03-30 12:09:00,
2013-03-30 08:14:00,54.5,48.8,29.92,WNW,292,0.0,0.0,81,0.00,,---,0.00,VWS V13.01,2013-03-30 12:14:00,
2013-03-30 08:19:00,55.0,49.3,29.92,WNW,292,0.0,0.0,81,0.00,,---,0.00,VWS V13.01,2013-03-30 12:19:00,
2013-03-30 08:24:00,55.2,49.5,29.92,WNW,292,0.0,0.0,81,0.00,,---,0.00,VWS V13.01,2013-03-30 12:24:00,
2013-03-30 08:29:00,55.5,49.8,29.92,WNW,292,0.0,0.0,81,0.00,,---,0.00,VWS V13.01,2013-03-30 12:29:00,
2013-03-30 08:34:00,55.9,50.2,29.92,WNW,292,0.0,0.0,81,0.00,,---,0.00,VWS V13.01,2013-03-30 12:34:00,
2013-03-30 08:39:00,56.3,50.5,29.92,WNW,292,0.0,0.0,81,0.00,,---,0.00,VWS V13.01,2013-03-30 12:39:00,
2013-03-30 08:44:00,56.4,50.7,29.92,WNW,292,0.0,0.0,81,0.00,,---,0.00,VWS V13.01,2013-03-30 12:44:00,
2013-03-30 08:49:00,57.0,51.2,29.92,WNW,292,0.0,0.0,81,0.00,,---,0.00,VWS V13.01,2013-03-30 12:49:00,
2013-03-30 08:54:00,57.5,51.7,29.92,WNW,292,0.0,0.0,81,0.00,,---,0.00,VWS V13.01,2013-03-30 12:54:00,
2013-03-30 08:59:00,57.9,52.1,29.92,WNW,292,0.0,0.0,81,0.00,,---,0.00,VWS V13.01,2013-03-30 12:59:00,
2013-03-30 09:04:00,58.6,52.8,29.92,WNW,292,0.0,0.0,81,0.00,,---,0.00,VWS V13.01,2013-03-30 13:04:00,
2013-03-30 09:09:00,58.8,53.0,29.92,WNW,292,0.0,0.0,81,0.00,,---,0.00,VWS V13.01,2013-03-30 13:09:00,
2013-03-30 09:14:00,59.3,53.5,29.92,WNW,292,0.0,0.0,81,0.00,,---,0.00,VWS V13.01,2013-03-30 13:14:00,
2013-03-30 09:19:00,60.0,54.2,29.92,WNW,292,0.0,0.0,81,0.00,,---,0.00,VWS V13.01,2013-03-30 13:19:00,
2013-03-30 09:24:00,60.6,54.8,29.92,WNW,292,0.0,0.0,81,0.00,,---,0.00,VWS V13.01,2013-03-30 13:24:00,
2013-03-30 09:29:00,60.9,55.0,29.92,WNW,292,0.0,0.0,81,0.00,,---,0.00,VWS V13.01,2013-03-30 13:29:00,
2013-03-30 09:34:00,61.7,55.8,29.92,WNW,292,0.0,0.0,81,0.00,,---,0.00,VWS V13.01,2013-03-30 13:34:00,
2013-03-30 09:39:00,62.2,56.0,29.92,WNW,292,0.0,0.0,80,0.00,,---,0.00,VWS V13.01,2013-03-30 13:39:00,
2013-03-30 09:44:00,62.6,56.0,29.92,WNW,292,0.0,0.0,79,0.00,,---,0.00,VWS V13.01,2013-03-30 13:44:00,
2013-03-30 09:49:00,63.3,56.3,29.92,WNW,292,0.0,0.0,78,0.00,,---,0.00,VWS V13.01,2013-03-30 13:49:00,
2013-03-30 09:54:00,63.8,56.8,29.92,WNW,292,0.0,0.0,78,0.00,,---,0.00,VWS V13.01,2013-03-30 13:54:00,
2013-03-30 09:59:00,64.2,56.5,29.92,WNW,292,0.0,0.0,76,0.00,,---,0.00,VWS V13.01,2013-03-30 13:59:00,
2013-03-30 10:04:00,64.9,56.4,29.92,WNW,292,0.0,0.0,74,0.00,,---,0.00,VWS V13.01,2013-03-30 14:04:00,
2013-03-30 10:09:00,65.3,56.4,29.92,WNW,292,0.0,0.0,73,0.00,,---,0.00,VWS V13.01,2013-03-30 14:09:00,
2013-03-30 10:14:00,65.8,56.2,29.91,WNW,292,0.0,0.0,71,0.00,,---,0.00,VWS V13.01,2013-03-30 14:14:00,
2013-03-30 10:19:00,66.5,56.4,29.91,West,270,0.0,0.0,70,0.00,,---,0.00,VWS V13.01,2013-03-30 14:19:00,
2013-03-30 10:24:00,66.9,56.4,29.91,West,270,0.0,0.0,69,0.00,,---,0.00,VWS V13.01,2013-03-30 14:24:00,
2013-03-30 10:29:00,67.1,56.2,29.91,WNW,292,0.0,0.0,68,0.00,,---,0.00,VWS V13.01,2013-03-30 14:29:00,
2013-03-30 10:34:00,67.6,56.3,29.91,WNW,292,0.0,0.0,67,0.00,,---,0.00,VWS V13.01,2013-03-30 14:34:00,
2013-03-30 10:39:00,68.1,56.7,29.91,West,270,0.0,0.0,67,0.00,,---,0.00,VWS V13.01,2013-03-30 14:39:00,
2013-03-30 10:44:00,68.5,56.3,29.92,WNW,292,0.0,0.0,65,0.00,,---,0.00,VWS V13.01,2013-03-30 14:44:00,
2013-03-30 10:49:00,69.0,55.9,29.92,WSW,248,0.0,0.0,63,0.00,,---,0.00,VWS V13.01,2013-03-30 14:49:00,
2013-03-30 10:54:00,69.4,55.8,29.92,NW,315,0.0,0.0,62,0.00,,---,0.00,VWS V13.01,2013-03-30 14:54:00,
2013-03-30 10:59:00,69.6,55.6,29.92,WNW,292,0.0,0.0,61,0.00,,---,0.00,VWS V13.01,2013-03-30 14:59:00,
2013-03-30 11:04:00,69.8,54.8,29.92,West,270,0.0,0.0,59,0.00,,---,0.00,VWS V13.01,2013-03-30 15:04:00,
2013-03-30 11:09:00,70.1,55.6,29.92,West,270,0.0,0.0,60,0.00,,---,0.00,VWS V13.01,2013-03-30 15:09:00,
2013-03-30 11:14:00,70.5,55.5,29.92,WSW,248,0.0,0.0,59,0.00,,---,0.00,VWS V13.01,2013-03-30 15:14:00,
2013-03-30 11:19:00,71.2,55.7,29.92,WNW,292,0.0,0.0,58,0.00,,---,0.00,VWS V13.01,2013-03-30 15:19:00,
2013-03-30 11:24:00,71.2,55.2,29.92,WNW,292,0.0,0.0,57,0.00,,---,0.00,VWS V13.01,2013-03-30 15:24:00,
2013-03-30 11:29:00,71.4,54.9,29.92,WSW,248,0.0,0.0,56,0.00,,---,0.00,VWS V13.01,2013-03-30 15:29:00,
2013-03-30 11:34:00,71.9,55.4,29.92,West,270,0.0,0.0,56,0.00,,---,0.00,VWS V13.01,2013-03-30 15:34:00,
2013-03-30 11:39:00,72.1,55.6,29.92,WSW,248,0.0,0.0,56,0.00,,---,0.00,VWS V13.01,2013-03-30 15:39:00,
2013-03-30 11:44:00,72.3,55.2,29.92,SSW,202,0.0,0.0,55,0.00,,---,0.00,VWS V13.01,2013-03-30 15:44:00,
2013-03-30 11:49:00,72.6,55.0,29.91,SW,225,0.0,0.0,54,0.00,,---,0.00,VWS V13.01,2013-03-30 15:49:00,
2013-03-30 11:54:00,73.0,55.4,29.92,WSW,248,0.0,0.0,54,0.00,,---,0.00,VWS V13.01,2013-03-30 15:54:00,
2013-03-30 11:59:00,73.2,55.6,29.92,West,270,0.0,0.0,54,0.00,,---,0.00,VWS V13.01,2013-03-30 15:59:00,
2013-03-30 12:04:00,73.5,55.3,29.92,WNW,292,0.0,0.0,53,0.00,,---,0.00,VWS V13.01,2013-03-30 16:04:00,
2013-03-30 12:09:00,73.2,55.1,29.92,West,270,0.0,0.0,53,0.00,,---,0.00,VWS V13.01,2013-03-30 16:09:00,
2013-03-30 12:14:00,73.0,54.9,29.91,West,270,0.0,0.0,53,0.00,,---,0.00,VWS V13.01,2013-03-30 16:14:00,
2013-03-30 12:19:00,73.5,55.3,29.91,NW,315,0.0,0.0,53,0.00,,---,0.00,VWS V13.01,2013-03-30 16:19:00,
2013-03-30 12:24:00,74.1,55.9,29.91,WNW,292,0.0,0.0,53,0.00,,---,0.00,VWS V13.01,2013-03-30 16:24:00,
2013-03-30 12:29:00,74.4,55.7,29.91,WSW,248,0.0,0.0,52,0.00,,---,0.00,VWS V13.01,2013-03-30 16:29:00,
2013-03-30 12:34:00,74.6,55.8,29.91,NW,315,0.0,0.0,52,0.00,,---,0.00,VWS V13.01,2013-03-30 16:34:00,
2013-03-30 12:39:00,74.8,55.5,29.90,WNW,292,0.0,0.0,51,0.00,,---,0.00,VWS V13.01,2013-03-30 16:39:00,
2013-03-30 12:44:00,75.3,55.9,29.90,NNW,338,0.0,0.0,51,0.00,,---,0.00,VWS V13.01,2013-03-30 16:44:00,
2013-03-30 12:49:00,75.5,56.1,29.90,North,360,0.0,0.0,51,0.00,,---,0.00,VWS V13.01,2013-03-30 16:49:00,
2013-03-30 12:54:00,75.7,56.3,29.90,NNW,338,0.0,0.0,51,0.00,,---,0.00,VWS V13.01,2013-03-30 16:54:00,
2013-03-30 12:59:00,75.9,56.0,29.89,SW,225,0.0,0.0,50,0.00,,---,0.00,VWS V13.01,2013-03-30 16:59:00,
2013-03-30 13:04:00,76.1,56.1,29.89,West,270,0.0,0.0,50,0.00,,---,0.00,VWS V13.01,2013-03-30 17:04:00,
2013-03-30 13:09:00,76.2,56.2,29.89,West,270,0.0,0.0,50,0.00,,---,0.00,VWS V13.01,2013-03-30 17:09:00,
2013-03-30 13:14:00,76.6,56.6,29.89,WSW,248,0.0,0.0,50,0.00,,---,0.00,VWS V13.01,2013-03-30 17:14:00,
2013-03-30 13:20:00,76.6,56.0,29.88,WNW,292,0.0,0.0,49,0.00,,---,0.00,VWS V13.01,2013-03-30 17:20:00,
2013-03-30 13:25:00,76.1,55.0,29.88,West,270,0.0,0.0,48,0.00,,---,0.00,VWS V13.01,2013-03-30 17:25:00,
2013-03-30 13:30:00,75.7,55.2,29.88,West,270,0.0,0.0,49,0.00,,---,0.00,VWS V13.01,2013-03-30 17:30:00,
2013-03-30 13:35:00,75.5,55.6,29.87,SSW,202,0.0,0.0,50,0.00,,---,0.00,VWS V13.01,2013-03-30 17:35:00,
2013-03-30 13:40:00,75.5,55.0,29.87,NNW,338,0.0,0.0,49,0.00,,---,0.00,VWS V13.01,2013-03-30 17:40:00,
2013-03-30 13:45:00,75.5,55.0,29.87,WSW,248,0.0,0.0,49,0.00,,---,0.00,VWS V13.01,2013-03-30 17:45:00,
2013-03-30 13:50:00,75.5,55.0,29.87,NW,315,0.0,0.0,49,0.00,,---,0.00,VWS V13.01,2013-03-30 17:50:00,
2013-03-30 13:55:00,75.5,55.6,29.87,WNW,292,0.0,0.0,50,0.00,,---,0.00,VWS V13.01,2013-03-30 17:55:00,
2013-03-30 14:01:00,75.7,55.8,29.87,North,360,0.0,0.0,50,0.00,,---,0.00,VWS V13.01,2013-03-30 18:01:00,
2013-03-30 14:06:00,75.9,56.0,29.86,WSW,248,0.0,0.0,50,0.00,,---,0.00,VWS V13.01,2013-03-30 18:06:00,
2013-03-30 14:12:00,76.6,56.0,29.86,NW,315,0.0,0.0,49,0.00,,---,0.00,VWS V13.01,2013-03-30 18:12:00,
2013-03-30 14:17:00,76.6,56.0,29.87,NW,315,0.0,0.0,49,0.00,,---,0.00,VWS V13.01,2013-03-30 18:17:00,
2013-03-30 14:23:00,76.8,55.7,29.86,WNW,292,0.0,0.0,48,0.00,,---,0.00,VWS V13.01,2013-03-30 18:23:00,
2013-03-30 14:28:00,76.8,55.7,29.86,WSW,248,0.0,0.0,48,0.00,,---,0.00,VWS V13.01,2013-03-30 18:28:00,
2013-03-30 14:33:00,76.8,55.7,29.86,West,270,0.0,0.0,48,0.00,,---,0.00,VWS V13.01,2013-03-30 18:33:00,
2013-03-30 14:38:00,77.0,55.8,29.86,West,270,0.0,0.0,48,0.00,,---,0.00,VWS V13.01,2013-03-30 18:38:00,
2013-03-30 14:43:00,77.1,56.5,29.86,SSW,202,0.0,0.0,49,0.00,,---,0.00,VWS V13.01,2013-03-30 18:43:00,
2013-03-30 14:48:00,77.1,55.3,29.86,NW,315,0.0,0.0,47,0.00,,---,0.00,VWS V13.01,2013-03-30 18:48:00,
2013-03-30 14:53:00,77.1,56.5,29.85,WSW,248,0.0,0.0,49,0.00,,---,0.00,VWS V13.01,2013-03-30 18:53:00,
2013-03-30 14:58:00,77.3,56.1,29.85,West,270,0.0,0.0,48,0.00,,---,0.00,VWS V13.01,2013-03-30 18:58:00,
2013-03-30 15:03:00,77.1,55.3,29.85,WNW,292,0.0,0.0,47,0.00,,---,0.00,VWS V13.01,2013-03-30 19:03:00,
2013-03-30 15:08:00,77.1,55.9,29.85,SW,225,0.0,0.0,48,0.00,,---,0.00,VWS V13.01,2013-03-30 19:08:00,
2013-03-30 15:13:00,77.1,55.3,29.84,WNW,292,0.0,0.0,47,0.00,,---,0.00,VWS V13.01,2013-03-30 19:13:00,
2013-03-30 15:18:00,77.1,55.9,29.84,WSW,248,0.0,0.0,48,0.00,,---,0.00,VWS V13.01,2013-03-30 19:18:00,
2013-03-30 15:23:00,77.1,55.3,29.84,West,270,0.0,0.0,47,0.00,,---,0.00,VWS V13.01,2013-03-30 19:23:00,
2013-03-30 15:28:00,77.1,55.9,29.84,WNW,292,0.0,0.0,48,0.00,,---,0.00,VWS V13.01,2013-03-30 19:28:00,
2013-03-30 15:33:00,77.3,56.1,29.84,SW,225,0.0,0.0,48,0.00,,---,0.00,VWS V13.01,2013-03-30 19:33:00,
2013-03-30 15:38:00,77.3,55.5,29.84,WNW,292,0.0,0.0,47,0.00,,---,0.00,VWS V13.01,2013-03-30 19:38:00,
2013-03-30 15:43:00,77.5,55.7,29.84,WNW,292,0.0,0.0,47,0.00,,---,0.00,VWS V13.01,2013-03-30 19:43:00,
2013-03-30 15:48:00,77.5,55.7,29.84,NW,315,0.0,0.0,47,0.00,,---,0.00,VWS V13.01,2013-03-30 19:48:00,
2013-03-30 15:53:00,76.8,55.1,29.83,West,270,0.0,0.0,47,0.00,,---,0.00,VWS V13.01,2013-03-30 19:53:00,
2013-03-30 15:59:00,77.0,55.2,29.83,NW,315,0.0,0.0,47,0.00,,---,0.00,VWS V13.01,2013-03-30 19:59:00,
2013-03-30 16:04:00,77.3,55.5,29.83,West,270,0.0,0.0,47,0.00,,---,0.00,VWS V13.01,2013-03-30 20:04:00,
2013-03-30 16:09:00,77.3,55.5,29.83,West,270,0.0,0.0,47,0.00,,---,0.00,VWS V13.01,2013-03-30 20:09:00,
2013-03-30 16:14:00,77.1,55.3,29.83,WNW,292,0.0,0.0,47,0.00,,---,0.00,VWS V13.01,2013-03-30 20:14:00,
2013-03-30 16:19:00,76.8,54.5,29.83,WNW,292,0.0,0.0,46,0.00,,---,0.00,VWS V13.01,2013-03-30 20:19:00,
2013-03-30 16:24:00,76.8,55.1,29.82,SSW,202,0.0,0.0,47,0.00,,---,0.00,VWS V13.01,2013-03-30 20:24:00,
2013-03-30 16:29:00,77.0,55.8,29.82,SSW,202,0.0,0.0,48,0.00,,---,0.00,VWS V13.01,2013-03-30 20:29:00,
2013-03-30 16:34:00,77.0,55.2,29.82,SSW,202,0.0,0.0,47,0.00,,---,0.00,VWS V13.01,2013-03-30 20:34:00,
2013-03-30 16:39:00,77.0,55.2,29.82,West,270,0.0,0.0,47,0.00,,---,0.00,VWS V13.01,2013-03-30 20:39:00,
2013-03-30 16:44:00,76.8,55.1,29.82,SW,225,0.0,0.0,47,0.00,,---,0.00,VWS V13.01,2013-03-30 20:44:00,
2013-03-30 16:49:00,76.6,54.9,29.82,WNW,292,0.0,0.0,47,0.00,,---,0.00,VWS V13.01,2013-03-30 20:49:00,
2013-03-30 16:54:00,76.2,54.5,29.82,SSW,202,0.0,0.0,47,0.00,,---,0.00,VWS V13.01,2013-03-30 20:54:00,
2013-03-30 16:59:00,76.1,55.0,29.82,SW,225,0.0,0.0,48,0.00,,---,0.00,VWS V13.01,2013-03-30 20:59:00,
2013-03-30 17:04:00,75.9,54.8,29.82,WSW,248,0.0,0.0,48,0.00,,---,0.00,VWS V13.01,2013-03-30 21:04:00,
2013-03-30 17:09:00,75.7,54.6,29.82,WNW,292,0.0,0.0,48,0.00,,---,0.00,VWS V13.01,2013-03-30 21:09:00,
2013-03-30 17:14:00,75.7,54.6,29.82,SSW,202,0.0,0.0,48,0.00,,---,0.00,VWS V13.01,2013-03-30 21:14:00,
2013-03-30 17:19:00,75.7,54.6,29.82,WSW,248,0.0,0.0,48,0.00,,---,0.00,VWS V13.01,2013-03-30 21:19:00,
2013-03-30 17:24:00,75.7,54.6,29.81,SW,225,0.0,0.0,48,0.00,,---,0.00,VWS V13.01,2013-03-30 21:24:00,
2013-03-30 17:29:00,75.3,54.3,29.82,WNW,292,0.0,0.0,48,0.00,,---,0.00,VWS V13.01,2013-03-30 21:29:00,
2013-03-30 17:34:00,75.3,54.3,29.82,SSW,202,0.0,0.0,48,0.00,,---,0.00,VWS V13.01,2013-03-30 21:34:00,
2013-03-30 17:39:00,75.3,54.3,29.82,SW,225,0.0,0.0,48,0.00,,---,0.00,VWS V13.01,2013-03-30 21:39:00,
2013-03-30 17:44:00,75.0,54.0,29.82,WSW,248,0.0,0.0,48,0.00,,---,0.00,VWS V13.01,2013-03-30 21:44:00,
2013-03-30 17:49:00,75.0,54.0,29.82,SW,225,0.0,0.0,48,0.00,,---,0.00,VWS V13.01,2013-03-30 21:49:00,
2013-03-30 17:55:00,74.8,54.4,29.82,SSW,202,0.0,0.0,49,0.00,,---,0.00,VWS V13.01,2013-03-30 21:55:00,
2013-03-30 18:01:00,74.8,54.4,29.82,NNW,338,0.0,0.0,49,0.00,,---,0.00,VWS V13.01,2013-03-30 22:01:00,
2013-03-30 18:06:00,75.0,54.6,29.82,SSW,202,0.0,0.0,49,0.00,,---,0.00,VWS V13.01,2013-03-30 22:06:00,
2013-03-30 18:11:00,74.4,54.0,29.82,SW,225,0.0,0.0,49,0.00,,---,0.00,VWS V13.01,2013-03-30 22:11:00,
2013-03-30 18:16:00,74.3,53.9,29.82,WNW,292,0.0,0.0,49,0.00,,---,0.00,VWS V13.01,2013-03-30 22:16:00,
2013-03-30 18:21:00,74.1,53.7,29.82,West,270,0.0,0.0,49,0.00,,---,0.00,VWS V13.01,2013-03-30 22:21:00,
2013-03-30 18:27:00,73.9,54.1,29.82,SSW,202,0.0,0.0,50,0.00,,---,0.00,VWS V13.01,2013-03-30 22:27:00,
2013-03-30 18:32:00,73.7,53.9,29.82,WNW,292,0.0,0.0,50,0.00,,---,0.00,VWS V13.01,2013-03-30 22:32:00,
2013-03-30 18:37:00,73.5,53.7,29.82,West,270,0.0,0.0,50,0.00,,---,0.00,VWS V13.01,2013-03-30 22:37:00,
2013-03-30 18:42:00,73.2,53.5,29.82,SW,225,0.0,0.0,50,0.00,,---,0.00,VWS V13.01,2013-03-30 22:42:00,
2013-03-30 18:48:00,73.2,54.0,29.82,West,270,0.0,0.0,51,0.00,,---,0.00,VWS V13.01,2013-03-30 22:48:00,
2013-03-30 18:53:00,72.6,53.5,29.82,SW,225,0.0,0.0,51,0.00,,---,0.00,VWS V13.01,2013-03-30 22:53:00,
2013-03-30 18:58:00,72.5,53.9,29.82,SSW,202,0.0,0.0,52,0.00,,---,0.00,VWS V13.01,2013-03-30 22:58:00,
2013-03-30 19:03:00,72.3,53.7,29.82,SSW,202,0.0,0.0,52,0.00,,---,0.00,VWS V13.01,2013-03-30 23:03:00,
2013-03-30 19:08:00,72.1,53.5,29.82,WSW,248,0.0,0.0,52,0.00,,---,0.00,VWS V13.01,2013-03-30 23:08:00,
2013-03-30 19:14:00,71.7,53.2,29.82,SW,225,0.0,0.0,52,0.00,,---,0.00,VWS V13.01,2013-03-30 23:14:00,
2013-03-30 19:19:00,71.7,53.2,29.83,WSW,248,0.0,0.0,52,0.00,,---,0.00,VWS V13.01,2013-03-30 23:19:00,
2013-03-30 19:24:00,71.7,53.2,29.83,WSW,248,0.0,0.0,52,0.00,,---,0.00,VWS V13.01,2013-03-30 23:24:00,
2013-03-30 19:29:00,71.4,53.4,29.83,WSW,248,0.0,0.0,53,0.00,,---,0.00,VWS V13.01,2013-03-30 23:29:00,
2013-03-30 19:34:00,71.4,53.4,29.83,WNW,292,0.0,0.0,53,0.00,,---,0.00,VWS V13.01,2013-03-30 23:34:00,
2013-03-30 19:39:00,71.4,53.4,29.83,West,270,0.0,0.0,53,0.00,,---,0.00,VWS V13.01,2013-03-30 23:39:00,
2013-03-30 19:44:00,71.2,53.2,29.83,SW,225,0.0,0.0,53,0.00,,---,0.00,VWS V13.01,2013-03-30 23:44:00,
2013-03-30 19:49:00,70.8,52.8,29.83,SW,225,0.0,0.0,53,0.00,,---,0.00,VWS V13.01,2013-03-30 23:49:00,
2013-03-30 19:54:00,70.7,53.3,29.83,SSW,202,0.0,0.0,54,0.00,,---,0.00,VWS V13.01,2013-03-30 23:54:00,
2013-03-30 19:59:00,70.5,53.1,29.83,WSW,248,0.0,0.0,54,0.00,,---,0.00,VWS V13.01,2013-03-30 23:59:00,
2013-03-30 20:04:00,70.3,52.9,29.83,SW,225,0.0,0.0,54,0.00,,---,0.00,VWS V13.01,2013-03-31 00:04:00,
2013-03-30 20:10:00,70.3,52.9,29.83,WSW,248,0.0,0.0,54,0.00,,---,0.00,VWS V13.01,2013-03-31 00:10:00,
2013-03-30 20:15:00,70.3,52.9,29.83,WSW,248,0.0,0.0,54,0.00,,---,0.00,VWS V13.01,2013-03-31 00:15:00,
2013-03-30 20:20:00,69.9,53.0,29.83,WSW,248,0.0,0.0,55,0.00,,---,0.00,VWS V13.01,2013-03-31 00:20:00,
2013-03-30 20:25:00,69.8,52.9,29.83,SW,225,0.0,0.0,55,0.00,,---,0.00,VWS V13.01,2013-03-31 00:25:00,
2013-03-30 20:30:00,69.6,52.7,29.83,SW,225,0.0,0.0,55,0.00,,---,0.00,VWS V13.01,2013-03-31 00:30:00,
2013-03-30 20:35:00,69.4,52.5,29.83,WSW,248,0.0,0.0,55,0.00,,---,0.00,VWS V13.01,2013-03-31 00:35:00,
2013-03-30 20:40:00,69.4,52.5,29.83,WSW,248,0.0,0.0,55,0.00,,---,0.00,VWS V13.01,2013-03-31 00:40:00,
2013-03-30 20:45:00,69.2,52.4,29.84,WSW,248,0.0,0.0,55,0.00,,---,0.00,VWS V13.01,2013-03-31 00:45:00,
2013-03-30 20:50:00,69.0,52.2,29.84,SW,225,0.0,0.0,55,0.00,,---,0.00,VWS V13.01,2013-03-31 00:50:00,
2013-03-30 20:55:00,68.7,51.9,29.84,SW,225,0.0,0.0,55,0.00,,---,0.00,VWS V13.01,2013-03-31 00:55:00,
2013-03-30 21:00:00,68.7,51.9,29.84,SW,225,0.0,0.0,55,0.00,,---,0.00,VWS V13.01,2013-03-31 01:00:00,
2013-03-30 21:05:00,68.5,51.7,29.84,WSW,248,0.0,0.0,55,0.00,,---,0.00,VWS V13.01,2013-03-31 01:05:00,
2013-03-30 21:10:00,68.3,51.5,29.84,WSW,248,0.0,0.0,55,0.00,,---,0.00,VWS V13.01,2013-03-31 01:10:00,
2013-03-30 21:15:00,68.1,51.3,29.84,WSW,248,0.0,0.0,55,0.00,,---,0.00,VWS V13.01,2013-03-31 01:15:00,
2013-03-30 21:20:00,67.8,51.1,29.84,SW,225,0.0,0.0,55,0.00,,---,0.00,VWS V13.01,2013-03-31 01:20:00,
2013-03-30 21:26:00,67.8,51.1,29.84,SW,225,0.0,0.0,55,0.00,,---,0.00,VWS V13.01,2013-03-31 01:26:00,
2013-03-30 21:31:00,67.6,50.9,29.84,SW,225,0.0,0.0,55,0.00,,---,0.00,VWS V13.01,2013-03-31 01:31:00,
2013-03-30 21:37:00,67.6,50.9,29.84,SW,225,0.0,0.0,55,0.00,,---,0.00,VWS V13.01,2013-03-31 01:37:00,
2013-03-30 21:42:00,67.2,51.0,29.84,SW,225,0.0,0.0,56,0.00,,---,0.00,VWS V13.01,2013-03-31 01:42:00,
2013-03-30 21:47:00,67.1,50.9,29.84,SW,225,0.0,0.0,56,0.00,,---,0.00,VWS V13.01,2013-03-31 01:47:00,
2013-03-30 21:52:00,66.9,50.7,29.84,SW,225,0.0,0.0,56,0.00,,---,0.00,VWS V13.01,2013-03-31 01:52:00,
2013-03-30 21:57:00,66.9,50.7,29.84,SW,225,0.0,0.0,56,0.00,,---,0.00,VWS V13.01,2013-03-31 01:57:00,
2013-03-30 22:02:00,66.9,50.7,29.84,SW,225,0.0,0.0,56,0.00,,---,0.00,VWS V13.01,2013-03-31 02:02:00,
2013-03-30 22:07:00,66.7,50.5,29.84,SW,225,0.0,0.0,56,0.00,,---,0.00,VWS V13.01,2013-03-31 02:07:00,
2013-03-30 22:13:00,66.7,50.5,29.84,SW,225,0.0,0.0,56,0.00,,---,0.00,VWS V13.01,2013-03-31 02:13:00,
2013-03-30 22:18:00,66.7,50.5,29.84,SW,225,0.0,0.0,56,0.00,,---,0.00,VWS V13.01,2013-03-31 02:18:00,
2013-03-30 22:23:00,66.5,50.3,29.84,SW,225,0.0,0.0,56,0.00,,---,0.00,VWS V13.01,2013-03-31 02:23:00,
2013-03-30 22:28:00,66.5,50.8,29.84,SW,225,0.0,0.0,57,0.00,,---,0.00,VWS V13.01,2013-03-31 02:28:00,
2013-03-30 22:34:00,66.3,50.6,29.85,WSW,248,0.0,0.0,57,0.00,,---,0.00,VWS V13.01,2013-03-31 02:34:00,
2013-03-30 22:39:00,66.3,50.6,29.84,WSW,248,0.0,0.0,57,0.00,,---,0.00,VWS V13.01,2013-03-31 02:39:00,
2013-03-30 22:44:00,66.0,50.3,29.85,WSW,248,0.0,0.0,57,0.00,,---,0.00,VWS V13.01,2013-03-31 02:44:00,
2013-03-30 22:50:00,66.0,50.3,29.85,WSW,248,0.0,0.0,57,0.00,,---,0.00,VWS V13.01,2013-03-31 02:50:00,
2013-03-30 22:55:00,66.0,50.8,29.85,WSW,248,0.0,0.0,58,0.00,,---,0.00,VWS V13.01,2013-03-31 02:55:00,
2013-03-30 23:00:00,66.0,50.8,29.85,SW,225,0.0,0.0,58,0.00,,---,0.00,VWS V13.01,2013-03-31 03:00:00,
2013-03-30 23:05:00,66.0,50.8,29.85,SW,225,0.0,0.0,58,0.00,,---,0.00,VWS V13.01,2013-03-31 03:05:00,
2013-03-30 23:10:00,65.8,50.6,29.85,SW,225,0.0,0.0,58,0.00,,---,0.00,VWS V13.01,2013-03-31 03:10:00,
2013-03-30 23:15:00,65.8,51.1,29.85,SW,225,0.0,0.0,59,0.00,,---,0.00,VWS V13.01,2013-03-31 03:15:00,
2013-03-30 23:20:00,65.6,50.9,29.85,SW,225,0.0,0.0,59,0.00,,---,0.00,VWS V13.01,2013-03-31 03:20:00,
2013-03-30 23:25:00,65.4,50.7,29.85,SW,225,0.0,0.0,59,0.00,,---,0.00,VWS V13.01,2013-03-31 03:25:00,
2013-03-30 23:30:00,65.4,50.7,29.85,SW,225,0.0,0.0,59,0.00,,---,0.00,VWS V13.01,2013-03-31 03:30:00,
2013-03-30 23:35:00,65.4,51.2,29.85,SW,225,0.0,0.0,60,0.00,,---,0.00,VWS V13.01,2013-03-31 03:35:00,
2013-03-30 23:40:00,65.3,51.1,29.85,SW,225,0.0,0.0,60,0.00,,---,0.00,VWS V13.01,2013-03-31 03:40:00,
2013-03-30 23:46:00,65.3,51.1,29.84,SW,225,0.0,0.0,60,0.00,,---,0.00,VWS V13.01,2013-03-31 03:46:00,
2013-03-30 23:51:00,65.3,51.1,29.84,SW,225,0.0,0.0,60,0.00,,---,0.00,VWS V13.01,2013-03-31 03:51:00,
2013-03-30 23:57:00,65.1,50.9,29.84,SW,225,0.0,0.0,60,0.00,,---,0.00,VWS V13.01,2013-03-31 03:57:00,